Location: Unspecified
(0.0000°N, 0.0000°E)
Time: 19:35:38

Vanguard 1 Rocket - Pass Details

Date: 13 December 2017
Orbit: 655 x 4222 km, 34.3° (Epoch: 19 March)

Event Time Altitude Azimuth Distance (km) Brightness Sun altitude
Rises 17:51:57 0° 312° (NW) 4,784 11.5 0.6°
Reaches altitude 10° 17:58:13 10° 341° (NNW) 4,597 11.0 -0.9°
Maximum altitude 18:02:50 12° 2° (N) 4,960 10.9 -1.9°
Drops below altitude 10° 18:08:25 10° 22° (NNE) 5,750 11.1 -3.2°
Enters shadow 18:18:42 - 46° (NE) 7,542 11.5 -5.6°
Sets 18:19:53 0° 48° (NE) 7,749 - -5.8°
